When you browse on this site, cookies collect data to enhance your experience and personalize the content and advertising you see.
Visit our Privacy Policy to learn more. By continuing to use the site, you agree to this use of cookies and data.
  • In Switzerland
  • List of Countries
  • For 7 days
  • Water Temperature
  • Satellite Maps
  • Weather Map
  • Weather Widgets
  • user-avatar
    Login

    Hourly Weather Plavynyshche

    Today, 26 April, Friday

    Time Temperature Precipitation Wind Pressure Humidity
    00:00 +17°C° 0 mm 2 mps 755 mmHg 52%
    01:00 +17°C° 0 mm 2 mps 755 mmHg 52%
    02:00 +17°C° 0 mm 2 mps 755 mmHg 53%
    03:00 +16°C° 0 mm 1 mps 755 mmHg 54%
    04:00 +16°C° 0 mm 1 mps 755 mmHg 56%
    05:00 +16°C° 0 mm 1 mps 755 mmHg 58%
    06:00 +18°C° 0 mm 1 mps 755 mmHg 56%
    07:00 +19°C° 0 mm 1 mps 755 mmHg 54%
    08:00 +19°C° 0 mm 1 mps 754 mmHg 52%
    09:00 +21°C° 0 mm 1 mps 754 mmHg 48%
    10:00 +21°C° 0 mm 2 mps 754 mmHg 44%
    11:00 +23°C° 0 mm 2 mps 754 mmHg 40%
    12:00 +23°C° 0 mm 2 mps 754 mmHg 42%
    13:00 +23°C° 0 mm 2 mps 753 mmHg 44%
    14:00 +23°C° 0 mm 1 mps 753 mmHg 45%
    15:00 +23°C° 0 mm 1 mps 753 mmHg 47%
    16:00 +22°C° 0 mm 1 mps 753 mmHg 48%
    17:00 +22°C° 0 mm 1 mps 752 mmHg 50%
    18:00 +20°C° 0 mm 2 mps 752 mmHg 51%
    19:00 +19°C° 0 mm 2 mps 752 mmHg 53%
    20:00 +18°C° 0 mm 2 mps 752 mmHg 54%
    21:00 +17°C° 0 mm 2 mps 752 mmHg 53%
    22:00 +16°C° 0 mm 1 mps 752 mmHg 51%
    23:00 +15°C° 0 mm 1 mps 752 mmHg 50%

    Tomorrow, 27 April, Saturday

    Time Temperature Precipitation Wind Pressure Humidity
    00:00 +14°C° 0 mm 1 mps 752 mmHg 50%
    01:00 +14°C° 0 mm 2 mps 752 mmHg 51%
    02:00 +13°C° 0 mm 2 mps 751 mmHg 51%
    03:00 +13°C° 0 mm 2 mps 751 mmHg 56%
    04:00 +12°C° 0 mm 2 mps 751 mmHg 60%
    05:00 +12°C° 0 mm 2 mps 751 mmHg 65%
    06:00 +14°C° 0 mm 2 mps 751 mmHg 63%
    07:00 +14°C° 0 mm 3 mps 750 mmHg 62%
    08:00 +17°C° 0 mm 3 mps 750 mmHg 61%
    09:00 +18°C° 0 mm 4 mps 750 mmHg 55%
    10:00 +19°C° 0 mm 4 mps 750 mmHg 49%
    11:00 +21°C° 0 mm 5 mps 750 mmHg 42%
    12:00 +21°C° 0 mm 5 mps 749 mmHg 43%
    13:00 +22°C° 0 mm 5 mps 749 mmHg 43%
    14:00 +22°C° 0 mm 5 mps 748 mmHg 43%
    15:00 +22°C° 0 mm 5 mps 748 mmHg 47%
    16:00 +21°C° 0 mm 4 mps 748 mmHg 50%
    17:00 +21°C° 0 mm 3 mps 747 mmHg 53%
    18:00 +19°C° 0 mm 3 mps 747 mmHg 58%
    19:00 +18°C° 0 mm 3 mps 747 mmHg 63%
    20:00 +16°C° 0 mm 3 mps 747 mmHg 68%
    21:00 +16°C° 0 mm 3 mps 746 mmHg 68%
    22:00 +15°C° 0 mm 4 mps 746 mmHg 68%
    23:00 +15°C° 0 mm 4 mps 746 mmHg 67%

    Day after tomorrow, 28 April, Sunday

    Time Temperature Precipitation Wind Pressure Humidity
    00:00 +15°C° 0.1 mm 5 mps 746 mmHg 68%
    01:00 +14°C° 0.1 mm 5 mps 746 mmHg 68%
    02:00 +14°C° 0.1 mm 5 mps 745 mmHg 69%
    03:00 +13°C° 0.1 mm 5 mps 745 mmHg 71%
    04:00 +13°C° 0.1 mm 5 mps 745 mmHg 74%
    05:00 +13°C° 0.1 mm 5 mps 744 mmHg 77%
    06:00 +13°C° 0.2 mm 5 mps 744 mmHg 75%
    07:00 +14°C° 0.2 mm 5 mps 744 mmHg 73%
    08:00 +15°C° 0.2 mm 5 mps 744 mmHg 71%
    09:00 +16°C° 0.1 mm 5 mps 744 mmHg 69%
    10:00 +17°C° 0.1 mm 5 mps 744 mmHg 67%
    11:00 +19°C° 0.1 mm 5 mps 744 mmHg 65%
    12:00 +20°C° 0.6 mm 4 mps 744 mmHg 63%
    13:00 +21°C° 0.6 mm 4 mps 744 mmHg 61%
    14:00 +22°C° 0.6 mm 4 mps 744 mmHg 60%
    15:00 +21°C° 1.6 mm 3 mps 744 mmHg 67%
    16:00 +19°C° 1.6 mm 3 mps 744 mmHg 74%
    17:00 +18°C° 1.6 mm 2 mps 744 mmHg 82%
    18:00 +17°C° 0.7 mm 2 mps 745 mmHg 85%
    19:00 +17°C° 0.7 mm 2 mps 745 mmHg 89%
    20:00 +16°C° 0.7 mm 2 mps 745 mmHg 92%
    21:00 +15°C° 0.3 mm 2 mps 745 mmHg 92%
    22:00 +14°C° 0.3 mm 3 mps 746 mmHg 93%
    23:00 +14°C° 0.3 mm 4 mps 746 mmHg 93%

    29 April, Monday

    Time Temperature Precipitation Wind Pressure Humidity
    00:00 +13°C° 0.3 mm 5 mps 746 mmHg 92%
    01:00 +12°C° 0.3 mm 5 mps 746 mmHg 90%
    02:00 +10°C° 0.3 mm 6 mps 747 mmHg 89%
    03:00 +10°C° 0.7 mm 6 mps 747 mmHg 88%
    04:00 +9°C° 0.7 mm 6 mps 747 mmHg 88%
    05:00 +8°C° 0.7 mm 7 mps 747 mmHg 87%
    06:00 +8°C° 1.5 mm 7 mps 747 mmHg 85%
    07:00 +6°C° 1.5 mm 7 mps 748 mmHg 83%
    08:00 +5°C° 1.5 mm 7 mps 748 mmHg 82%
    09:00 +5°C° 1.3 mm 7 mps 748 mmHg 79%
    10:00 +6°C° 1.3 mm 7 mps 749 mmHg 77%
    11:00 +6°C° 1.3 mm 7 mps 749 mmHg 75%
    12:00 +8°C° 0.7 mm 6 mps 749 mmHg 73%
    13:00 +8°C° 0.7 mm 6 mps 749 mmHg 72%
    14:00 +9°C° 0.7 mm 6 mps 749 mmHg 71%
    15:00 +9°C° 0.1 mm 5 mps 749 mmHg 70%
    16:00 +9°C° 0.1 mm 5 mps 748 mmHg 70%
    17:00 +9°C° 0.1 mm 5 mps 748 mmHg 69%
    18:00 +9°C° 0 mm 5 mps 748 mmHg 70%
    19:00 +8°C° 0 mm 5 mps 748 mmHg 70%
    20:00 +8°C° 0 mm 5 mps 749 mmHg 71%
    21:00 +8°C° 0.2 mm 5 mps 748 mmHg 72%
    22:00 +7°C° 0.2 mm 5 mps 748 mmHg 73%
    23:00 +7°C° 0.2 mm 5 mps 748 mmHg 74%

    30 April, Tuesday

    Time Temperature Precipitation Wind Pressure Humidity
    00:00 +7°C° 0.2 mm 5 mps 748 mmHg 76%
    01:00 +7°C° 0.2 mm 5 mps 747 mmHg 78%
    02:00 +6°C° 0.2 mm 5 mps 747 mmHg 80%
    03:00 +6°C° 0.1 mm 5 mps 747 mmHg 80%
    04:00 +5°C° 0.1 mm 6 mps 747 mmHg 80%
    05:00 +5°C° 0.1 mm 6 mps 746 mmHg 81%
    06:00 +5°C° 0.1 mm 6 mps 746 mmHg 81%
    07:00 +5°C° 0.1 mm 6 mps 746 mmHg 81%
    08:00 +7°C° 0.1 mm 6 mps 746 mmHg 81%
    09:00 +6°C° 0.3 mm 7 mps 745 mmHg 83%
    10:00 +6°C° 0.3 mm 7 mps 745 mmHg 84%
    11:00 +6°C° 0.3 mm 7 mps 745 mmHg 86%
    12:00 +5°C° 0.2 mm 7 mps 745 mmHg 86%
    13:00 +5°C° 0.2 mm 7 mps 744 mmHg 86%
    14:00 +5°C° 0.2 mm 7 mps 744 mmHg 86%
    15:00 +5°C° 0.2 mm 6 mps 744 mmHg 87%
    16:00 +5°C° 0.2 mm 6 mps 744 mmHg 87%
    17:00 +5°C° 0.2 mm 6 mps 743 mmHg 88%
    18:00 +4°C° 0.4 mm 6 mps 743 mmHg 89%
    19:00 +5°C° 0.4 mm 5 mps 743 mmHg 91%
    20:00 +5°C° 0.4 mm 5 mps 743 mmHg 92%
    21:00 +5°C° 0.4 mm 5 mps 743 mmHg 92%
    22:00 +5°C° 0.4 mm 5 mps 742 mmHg 92%
    23:00 +5°C° 0.4 mm 5 mps 742 mmHg 93%

    1 May, Wednesday

    Time Temperature Precipitation Wind Pressure Humidity
    00:00 +5°C° 0.3 mm 5 mps 742 mmHg 93%
    01:00 +5°C° 0.3 mm 5 mps 741 mmHg 93%
    02:00 +5°C° 0.3 mm 5 mps 741 mmHg 93%
    03:00 +3°C° 0.4 mm 5 mps 741 mmHg 93%
    04:00 +3°C° 0.4 mm 5 mps 741 mmHg 93%
    05:00 +3°C° 0.4 mm 5 mps 741 mmHg 92%
    06:00 +5°C° 0.4 mm 5 mps 741 mmHg 91%
    07:00 +4°C° 0.4 mm 6 mps 741 mmHg 89%
    08:00 +4°C° 0.4 mm 6 mps 741 mmHg 88%
    09:00 +5°C° 0.1 mm 6 mps 741 mmHg 85%
    10:00 +5°C° 0.1 mm 6 mps 741 mmHg 81%
    11:00 +7°C° 0.1 mm 6 mps 741 mmHg 78%
    12:00 +8°C° 0 mm 6 mps 741 mmHg 74%
    13:00 +9°C° 0 mm 6 mps 741 mmHg 70%
    14:00 +10°C° 0 mm 7 mps 741 mmHg 65%
    15:00 +10°C° 0.1 mm 6 mps 741 mmHg 65%
    16:00 +10°C° 0.1 mm 6 mps 742 mmHg 64%
    17:00 +10°C° 0.1 mm 5 mps 742 mmHg 63%
    18:00 +10°C° 0.1 mm 4 mps 742 mmHg 68%
    19:00 +7°C° 0.1 mm 4 mps 742 mmHg 73%
    20:00 +7°C° 0.1 mm 3 mps 743 mmHg 78%
    21:00 +7°C° 0.1 mm 3 mps 743 mmHg 81%
    22:00 +5°C° 0.1 mm 3 mps 743 mmHg 83%
    23:00 +4°C° 0.1 mm 3 mps 743 mmHg 85%
    Show more